"read_dt","SO2 (ppb)","flags","PMT voltage (V)","lamp voltage (V)","lamp intensity (Hz)","internal temp (C)","react chamber temp (C)","sample flow (l/min)","pres (mmHg)","SO2 bkg (ppb)","SO2 coefficient"
2014-06-16 00:00:00,1912E-3,5C000000,-0724,0840,12020,027.9,045.5,0.483,735.7,01.18,0.508
2014-06-16 00:01:00,1902E-3,5C000000,-0724,0839,11849,027.9,045.5,0.484,735.6,01.18,0.508
2014-06-16 00:02:00,1827E-3,5C000000,-0724,0839,12108,028.0,045.5,0.484,735.6,01.18,0.508
2014-06-16 00:03:00,1953E-3,5C000000,-0724,0840,12126,028.0,045.5,0.484,735.6,01.18,0.508
2014-06-16 00:04:00,1936E-3,5C000000,-0724,0839,12091,028.0,045.5,0.484,735.5,01.18,0.508
2014-06-16 00:05:00,1809E-3,5C000000,-0724,0839,12125,028.0,045.5,0.484,735.5,01.18,0.508
2014-06-16 00:06:00,1898E-3,5C000000,-0724,0839,12107,028.0,045.5,0.484,735.5,01.18,0.508
2014-06-16 00:07:00,2000E-3,5C000000,-0724,0839,12181,028.2,045.5,0.485,735.5,01.18,0.508
2014-06-16 00:08:00,1919E-3,5C000000,-0724,0841,12056,028.2,045.5,0.485,735.4,01.18,0.508
2014-06-16 00:09:00,1794E-3,5C000000,-0724,0839,12079,028.3,045.5,0.484,735.4,01.18,0.508
2014-06-16 00:10:00,1896E-3,5C000000,-0724,0840,12095,028.4,045.5,0.485,735.4,01.18,0.508
2014-06-16 00:11:00,1842E-3,5C000000,-0724,0839,12081,028.4,045.5,0.485,735.4,01.18,0.508
2014-06-16 00:12:00,1913E-3,5C000000,-0724,0840,11928,028.5,045.5,0.485,735.4,01.18,0.508
2014-06-16 00:13:00,1925E-3,5C000000,-0724,0839,12154,028.5,045.5,0.485,735.3,01.18,0.508
2014-06-16 00:14:00,1926E-3,5C000000,-0724,0840,12194,028.6,045.5,0.485,735.3,01.18,0.508
2014-06-16 00:15:00,1850E-3,5C000000,-0724,0840,12151,028.7,045.5,0.484,735.3,01.18,0.508
2014-06-16 00:16:00,1814E-3,5C000000,-0724,0840,12070,028.8,045.5,0.484,735.4,01.18,0.508
2014-06-16 00:17:00,1893E-3,5C000000,-0724,0840,11913,028.8,045.5,0.485,735.3,01.18,0.508
2014-06-16 00:18:00,1893E-3,5C000000,-0724,0840,12059,028.8,045.5,0.484,735.2,01.18,0.508
2014-06-16 00:19:00,2026E-3,5C000000,-0724,0840,12048,028.8,045.5,0.484,735.3,01.18,0.508
2014-06-16 00:20:00,1927E-3,5C000000,-0724,0839,12136,028.8,045.5,0.484,735.3,01.18,0.508
2014-06-16 00:21:00,1871E-3,5C000000,-0724,0839,12104,028.8,045.5,0.484,735.3,01.18,0.508
2014-06-16 00:22:00,1829E-3,5C000000,-0724,0840,12123,028.8,045.5,0.485,735.3,01.18,0.508
2014-06-16 00:23:00,1938E-3,5C000000,-0724,0840,12082,028.7,045.5,0.484,735.3,01.18,0.508
2014-06-16 00:24:00,1864E-3,5C000000,-0724,0839,12031,028.7,045.5,0.485,735.3,01.18,0.508
2014-06-16 00:25:00,1889E-3,5C000000,-0724,0838,12179,028.8,045.5,0.484,735.3,01.18,0.508
2014-06-16 00:26:00,2035E-3,5C000000,-0724,0840,12178,028.8,045.5,0.484,735.3,01.18,0.508
2014-06-16 00:27:00,2015E-3,5C000000,-0724,0839,12144,028.8,045.5,0.484,735.2,01.18,0.508
2014-06-16 00:28:00,1956E-3,5C000000,-0724,0840,12037,028.8,045.5,0.484,735.2,01.18,0.508
2014-06-16 00:29:00,1989E-3,5C000000,-0724,0839,12288,028.9,045.5,0.484,735.2,01.18,0.508
2014-06-16 00:30:00,1967E-3,5C000000,-0724,0840,12139,028.9,045.5,0.485,735.1,01.18,0.508
2014-06-16 00:31:00,2099E-3,5C000000,-0724,0839,12275,028.9,045.5,0.484,735.2,01.18,0.508
2014-06-16 00:32:00,1876E-3,5C000000,-0724,0839,12094,028.8,045.5,0.484,735.2,01.18,0.508
2014-06-16 00:33:00,1917E-3,5C000000,-0724,0839,12081,029.0,045.5,0.484,735.1,01.18,0.508
2014-06-16 00:34:00,1886E-3,5C000000,-0724,0840,12082,029.2,045.5,0.484,735.1,01.18,0.508
2014-06-16 00:35:00,1946E-3,5C000000,-0724,0841,12022,029.3,045.5,0.484,735.1,01.18,0.508
2014-06-16 00:36:00,1898E-3,5C000000,-0724,0840,11975,029.4,045.5,0.484,735.0,01.18,0.508
2014-06-16 00:37:00,1827E-3,5C000000,-0724,0840,12085,029.6,045.5,0.484,735.1,01.18,0.508
2014-06-16 00:38:00,1920E-3,5C000000,-0724,0840,12130,029.7,045.5,0.484,735.1,01.18,0.508
2014-06-16 00:39:00,1971E-3,5C000000,-0724,0841,12091,029.8,045.5,0.483,735.1,01.18,0.508
2014-06-16 00:40:00,1849E-3,5C000000,-0724,0840,12047,029.9,045.5,0.483,735.0,01.18,0.508
2014-06-16 00:41:00,1856E-3,5C000000,-0724,0840,11957,029.9,045.6,0.483,735.0,01.18,0.508
2014-06-16 00:42:00,1769E-3,5C000000,-0724,0839,11981,030.0,045.6,0.483,734.9,01.18,0.508
2014-06-16 00:43:00,2023E-3,5C000000,-0724,0840,12163,030.1,045.6,0.483,734.9,01.18,0.508
2014-06-16 00:44:00,1871E-3,5C000000,-0724,0839,12023,030.2,045.5,0.483,735.0,01.18,0.508
2014-06-16 00:45:00,1928E-3,5C000000,-0724,0840,12220,030.3,045.6,0.482,735.0,01.18,0.508
2014-06-16 00:46:00,1870E-3,5C000000,-0724,0840,12108,030.3,045.6,0.482,735.0,01.18,0.508
2014-06-16 00:47:00,1896E-3,5C000000,-0724,0840,12126,030.4,045.6,0.482,734.9,01.18,0.508
2014-06-16 00:48:00,2004E-3,5C000000,-0724,0840,12203,030.4,045.6,0.482,734.9,01.18,0.508
2014-06-16 00:49:00,1840E-3,5C000000,-0724,0841,12288,030.5,045.6,0.482,734.9,01.18,0.508
2014-06-16 00:50:00,1950E-3,5C000000,-0724,0840,11986,030.6,045.6,0.482,734.9,01.18,0.508
2014-06-16 00:51:00,1869E-3,5C000000,-0724,0841,12094,030.6,045.5,0.482,734.9,01.18,0.508
2014-06-16 00:52:00,1914E-3,5C000000,-0724,0841,12023,030.6,045.6,0.482,734.8,01.18,0.508
2014-06-16 00:53:00,1847E-3,5C000000,-0724,0840,12099,030.7,045.6,0.482,734.9,01.18,0.508
2014-06-16 00:54:00,1939E-3,5C000000,-0724,0840,12055,030.7,045.6,0.482,734.8,01.18,0.508
2014-06-16 00:55:00,2039E-3,5C000000,-0724,0839,12017,030.8,045.6,0.481,734.9,01.18,0.508
2014-06-16 00:56:00,1929E-3,5C000000,-0724,0841,12161,030.9,045.6,0.481,734.9,01.18,0.508
2014-06-16 00:57:00,1887E-3,5C000000,-0724,0840,12171,030.9,045.6,0.481,734.8,01.18,0.508
2014-06-16 00:58:00,1977E-3,5C000000,-0724,0840,12077,030.9,045.6,0.481,734.8,01.18,0.508
2014-06-16 00:59:00,1804E-3,5C000000,-0724,0841,12214,030.9,045.6,0.481,734.8,01.18,0.508
2014-06-16 01:00:00,1946E-3,5C000000,-0724,0840,12125,031.0,045.6,0.481,734.8,01.18,0.508
2014-06-16 01:01:00,1823E-3,5C000000,-0724,0840,12149,031.0,045.6,0.481,734.7,01.18,0.508
2014-06-16 01:02:00,1880E-3,5C000000,-0724,0841,12078,031.1,045.6,0.481,734.7,01.18,0.508
2014-06-16 01:03:00,1792E-3,5C000000,-0724,0840,12033,031.1,045.6,0.481,734.7,01.18,0.508
2014-06-16 01:04:00,2019E-3,5C000000,-0724,0841,12174,031.1,045.6,0.481,734.7,01.18,0.508
2014-06-16 01:05:00,1893E-3,5C000000,-0724,0839,11995,031.1,045.6,0.481,734.7,01.18,0.508
2014-06-16 01:06:00,1964E-3,5C000000,-0724,0840,11927,031.2,045.6,0.481,734.7,01.18,0.508
2014-06-16 01:07:00,1855E-3,5C000000,-0724,0841,12105,031.2,045.6,0.481,734.7,01.18,0.508
2014-06-16 01:08:00,1838E-3,5C000000,-0724,0840,12061,031.2,045.6,0.481,734.6,01.18,0.508
2014-06-16 01:09:00,1898E-3,5C000000,-0724,0841,12100,031.2,045.6,0.480,734.6,01.18,0.508
2014-06-16 01:10:00,1850E-3,5C000000,-0724,0840,12101,031.3,045.6,0.481,734.6,01.18,0.508
2014-06-16 01:11:00,1901E-3,5C000000,-0724,0841,12050,031.3,045.6,0.481,734.5,01.18,0.508
2014-06-16 01:12:00,1815E-3,5C000000,-0724,0842,12165,031.3,045.6,0.481,734.5,01.18,0.508
2014-06-16 01:13:00,1984E-3,5C000000,-0724,0840,12066,031.4,045.6,0.480,734.6,01.18,0.508
2014-06-16 01:14:00,1856E-3,5C000000,-0724,0841,12166,031.4,045.6,0.480,734.5,01.18,0.508
2014-06-16 01:15:00,1775E-3,5C000000,-0724,0841,12193,031.4,045.6,0.480,734.5,01.18,0.508
2014-06-16 01:16:00,1943E-3,5C000000,-0724,0840,11965,031.4,045.6,0.481,734.4,01.18,0.508
2014-06-16 01:17:00,1984E-3,5C000000,-0724,0842,11997,031.4,045.6,0.480,734.4,01.18,0.508
2014-06-16 01:18:00,1903E-3,5C000000,-0724,0841,12008,031.5,045.6,0.480,734.5,01.18,0.508
2014-06-16 01:19:00,1869E-3,5C000000,-0724,0841,12059,031.5,045.6,0.480,734.4,01.18,0.508
2014-06-16 01:20:00,1909E-3,5C000000,-0724,0841,12203,031.5,045.6,0.481,734.5,01.18,0.508
2014-06-16 01:21:00,1928E-3,5C000000,-0724,0840,12113,031.5,045.6,0.480,734.4,01.18,0.508
2014-06-16 01:22:00,1969E-3,5C000000,-0724,0839,12167,031.5,045.6,0.480,734.4,01.18,0.508
2014-06-16 01:23:00,1946E-3,5C000000,-0724,0840,12179,031.5,045.6,0.480,734.4,01.18,0.508
2014-06-16 01:24:00,1794E-3,5C000000,-0724,0841,12107,031.5,045.6,0.480,734.3,01.18,0.508
2014-06-16 01:25:00,1851E-3,5C000000,-0724,0840,11960,031.6,045.6,0.480,734.4,01.18,0.508
2014-06-16 01:26:00,1956E-3,5C000000,-0724,0840,11977,031.6,045.6,0.480,734.4,01.18,0.508
2014-06-16 01:27:00,1841E-3,5C000000,-0724,0841,11964,031.6,045.6,0.480,734.3,01.18,0.508
2014-06-16 01:28:00,1867E-3,5C000000,-0724,0840,11924,031.6,045.6,0.480,734.4,01.18,0.508
2014-06-16 01:29:00,2097E-3,5C000000,-0724,0841,12088,031.6,045.6,0.480,734.4,01.18,0.508
2014-06-16 01:30:00,1943E-3,5C000000,-0724,0841,12154,031.6,045.6,0.480,734.3,01.18,0.508
2014-06-16 01:31:00,1854E-3,5C000000,-0724,0841,11996,031.6,045.6,0.480,734.3,01.18,0.508
2014-06-16 01:32:00,1932E-3,5C000000,-0724,0841,12177,031.7,045.6,0.480,734.3,01.18,0.508
2014-06-16 01:33:00,1864E-3,5C000000,-0724,0841,12037,031.6,045.6,0.480,734.3,01.18,0.508
2014-06-16 01:34:00,1936E-3,5C000000,-0724,0841,12142,031.7,045.6,0.480,734.3,01.18,0.508
2014-06-16 01:35:00,1759E-3,5C000000,-0724,0842,11969,031.7,045.6,0.480,734.4,01.18,0.508
2014-06-16 01:36:00,1779E-3,5C000000,-0724,0841,11942,031.7,045.6,0.480,734.4,01.18,0.508
2014-06-16 01:37:00,1976E-3,5C000000,-0724,0842,12116,031.7,045.6,0.480,734.3,01.18,0.508
2014-06-16 01:38:00,1897E-3,5C000000,-0724,0839,12230,031.7,045.6,0.479,734.3,01.18,0.508
2014-06-16 01:39:00,1986E-3,5C000000,-0724,0840,12144,031.7,045.6,0.480,734.3,01.18,0.508
2014-06-16 01:40:00,1909E-3,5C000000,-0724,0841,12079,031.7,045.6,0.480,734.3,01.18,0.508
2014-06-16 01:41:00,1960E-3,5C000000,-0724,0841,12082,031.7,045.6,0.480,734.2,01.18,0.508
2014-06-16 01:42:00,1779E-3,5C000000,-0724,0841,12149,031.7,045.6,0.480,734.2,01.18,0.508
2014-06-16 01:43:00,1967E-3,5C000000,-0724,0842,12025,031.7,045.6,0.480,734.2,01.18,0.508
2014-06-16 01:44:00,1897E-3,5C000000,-0724,0842,12167,031.7,045.6,0.480,734.2,01.18,0.508
2014-06-16 01:45:00,1817E-3,5C000000,-0724,0841,11996,031.7,045.6,0.479,734.2,01.18,0.508
2014-06-16 01:46:00,1880E-3,5C000000,-0724,0841,12012,031.7,045.6,0.480,734.1,01.19,0.508
2014-06-16 01:47:00,1935E-3,5C000000,-0724,0841,12062,031.7,045.6,0.480,734.1,01.19,0.508
2014-06-16 01:48:00,1936E-3,5C000000,-0724,0841,12148,031.7,045.6,0.480,734.1,01.19,0.508
2014-06-16 01:49:00,1878E-3,5C000000,-0724,0841,12196,031.7,045.6,0.479,734.0,01.19,0.508
2014-06-16 01:50:00,1895E-3,5C000000,-0724,0841,12115,031.8,045.6,0.480,734.0,01.19,0.508
2014-06-16 01:51:00,1845E-3,5C000000,-0724,0841,11981,031.7,045.6,0.480,734.0,01.19,0.508
2014-06-16 01:52:00,1943E-3,5C000000,-0724,0841,11995,031.7,045.6,0.480,734.0,01.19,0.508
2014-06-16 01:53:00,1936E-3,5C000000,-0724,0841,12046,031.8,045.6,0.479,734.0,01.19,0.508
2014-06-16 01:54:00,2075E-3,5C000000,-0724,0841,12230,031.7,045.6,0.479,734.0,01.19,0.508
2014-06-16 01:55:00,2001E-3,5C000000,-0724,0840,11979,031.8,045.6,0.480,734.0,01.19,0.508
2014-06-16 01:56:00,1902E-3,5C000000,-0724,0841,11939,031.8,045.6,0.480,734.0,01.19,0.508
2014-06-16 01:57:00,1861E-3,5C000000,-0724,0840,12026,031.8,045.6,0.480,734.0,01.19,0.508
2014-06-16 01:58:00,1834E-3,5C000000,-0724,0841,12106,031.8,045.6,0.479,734.0,01.19,0.508
2014-06-16 01:59:00,1977E-3,5C000000,-0724,0841,12033,031.8,045.6,0.479,733.9,01.19,0.508
2014-06-16 02:00:00,1932E-3,5C000000,-0724,0841,12176,031.8,045.6,0.480,734.0,01.19,0.508
2014-06-16 02:01:00,1982E-3,5C000000,-0724,0841,12151,031.8,045.6,0.480,734.0,01.19,0.508
2014-06-16 02:02:00,1865E-3,5C000000,-0724,0842,12103,031.8,045.6,0.479,734.0,01.19,0.508
2014-06-16 02:03:00,1847E-3,5C000000,-0724,0841,12051,031.8,045.6,0.479,733.9,01.19,0.508
2014-06-16 02:04:00,1966E-3,5C000000,-0724,0841,11974,031.8,045.6,0.480,734.0,01.19,0.508
2014-06-16 02:05:00,1983E-3,5C000000,-0724,0840,11977,031.8,045.6,0.480,733.9,01.19,0.508
2014-06-16 02:06:00,1930E-3,5C000000,-0724,0840,11943,031.8,045.6,0.479,734.0,01.19,0.508
2014-06-16 02:07:00,1921E-3,5C000000,-0724,0841,11959,031.8,045.6,0.479,734.0,01.19,0.508
2014-06-16 02:08:00,1862E-3,5C000000,-0724,0841,12149,031.9,045.6,0.480,733.9,01.19,0.508
2014-06-16 02:09:00,1881E-3,5C000000,-0724,0841,12061,031.9,045.6,0.480,733.9,01.19,0.508
2014-06-16 02:10:00,1978E-3,5C000000,-0724,0841,12135,031.9,045.6,0.479,733.9,01.19,0.508
2014-06-16 02:11:00,2021E-3,5C000000,-0724,0841,12008,031.9,045.6,0.479,733.9,01.19,0.508
2014-06-16 02:12:00,1894E-3,5C000000,-0724,0841,12040,031.9,045.6,0.480,733.9,01.19,0.508
2014-06-16 02:13:00,1861E-3,5C000000,-0724,0841,12031,031.9,045.6,0.479,733.9,01.19,0.508
2014-06-16 02:14:00,1956E-3,5C000000,-0724,0840,12106,031.9,045.6,0.479,733.9,01.19,0.508
2014-06-16 02:15:00,1846E-3,5C000000,-0724,0841,11962,031.9,045.6,0.480,734.0,01.19,0.508
2014-06-16 02:16:00,2024E-3,5C000000,-0724,0840,12082,031.9,045.6,0.480,733.9,01.19,0.508
2014-06-16 02:17:00,1950E-3,5C000000,-0724,0840,12034,031.9,045.6,0.479,733.8,01.19,0.508
2014-06-16 02:18:00,1837E-3,5C000000,-0724,0842,12167,031.9,045.6,0.479,733.8,01.19,0.508
2014-06-16 02:19:00,1906E-3,5C000000,-0724,0842,12287,031.9,045.6,0.480,733.8,01.19,0.508
2014-06-16 02:20:00,1895E-3,5C000000,-0724,0841,12118,031.9,045.6,0.479,733.8,01.19,0.508
2014-06-16 02:21:00,1898E-3,5C000000,-0724,0841,11891,031.9,045.6,0.479,733.8,01.19,0.508
2014-06-16 02:22:00,1898E-3,5C000000,-0724,0841,12159,031.9,045.6,0.479,733.8,01.19,0.508
2014-06-16 02:23:00,1844E-3,5C000000,-0724,0841,12067,031.9,045.6,0.479,733.8,01.19,0.508
2014-06-16 02:24:00,1830E-3,5C000000,-0724,0840,11954,031.9,045.6,0.479,733.8,01.19,0.508
2014-06-16 02:25:00,1904E-3,5C000000,-0724,0841,12115,031.9,045.6,0.479,733.8,01.19,0.508
2014-06-16 02:26:00,1813E-3,5C000000,-0724,0842,12134,031.9,045.6,0.479,733.7,01.19,0.508
2014-06-16 02:27:00,1854E-3,5C000000,-0724,0840,12161,031.9,045.6,0.479,733.7,01.19,0.508
2014-06-16 02:28:00,2004E-3,5C000000,-0724,0841,11907,031.9,045.6,0.479,733.8,01.19,0.508
2014-06-16 02:29:00,1929E-3,5C000000,-0724,0842,11945,031.9,045.6,0.479,733.7,01.19,0.508
2014-06-16 02:30:00,1864E-3,5C000000,-0724,0841,12134,031.9,045.6,0.479,733.8,01.19,0.508
2014-06-16 02:31:00,1935E-3,5C000000,-0724,0841,11866,031.9,045.6,0.479,733.6,01.19,0.508
2014-06-16 02:32:00,1865E-3,5C000000,-0724,0840,12136,031.8,045.6,0.479,733.7,01.19,0.508
2014-06-16 02:33:00,1813E-3,5C000000,-0724,0841,12033,031.8,045.6,0.479,733.7,01.19,0.508
2014-06-16 02:34:00,1794E-3,5C000000,-0724,0842,12183,031.8,045.6,0.480,733.7,01.19,0.508
2014-06-16 02:35:00,1744E-3,5C000000,-0724,0841,12066,031.8,045.6,0.479,733.7,01.19,0.508
2014-06-16 02:36:00,2003E-3,5C000000,-0724,0840,11940,031.8,045.6,0.479,733.7,01.19,0.508
2014-06-16 02:37:00,1925E-3,5C000000,-0724,0841,11804,031.8,045.6,0.480,733.6,01.19,0.508
2014-06-16 02:38:00,1938E-3,5C000000,-0724,0841,12110,031.8,045.6,0.479,733.7,01.19,0.508
2014-06-16 02:39:00,1984E-3,5C000000,-0724,0841,12154,031.8,045.6,0.479,733.7,01.19,0.508
2014-06-16 02:40:00,1945E-3,5C000000,-0724,0840,12178,031.7,045.6,0.480,733.7,01.19,0.508
2014-06-16 02:41:00,1973E-3,5C000000,-0724,0842,12179,031.7,045.6,0.479,733.7,01.19,0.508
2014-06-16 02:42:00,1912E-3,5C000000,-0724,0841,12134,031.7,045.6,0.479,733.7,01.19,0.508
2014-06-16 02:43:00,1832E-3,5C000000,-0724,0841,12244,031.7,045.6,0.480,733.6,01.19,0.508
2014-06-16 02:44:00,1858E-3,5C000000,-0724,0841,12131,031.7,045.6,0.479,733.6,01.19,0.508
2014-06-16 02:45:00,1916E-3,5C000000,-0724,0840,12036,031.6,045.6,0.480,733.6,01.19,0.508
2014-06-16 02:46:00,1983E-3,5C000000,-0724,0842,11882,031.6,045.6,0.480,733.6,01.19,0.508
2014-06-16 02:47:00,1973E-3,5C000000,-0724,0840,11982,031.6,045.6,0.479,733.6,01.19,0.508
2014-06-16 02:48:00,1800E-3,5C000000,-0724,0841,11774,031.5,045.6,0.480,733.6,01.19,0.508
2014-06-16 02:49:00,1882E-3,5C000000,-0724,0840,12092,031.5,045.6,0.480,733.6,01.19,0.508
2014-06-16 02:50:00,1904E-3,5C000000,-0724,0840,12203,031.5,045.6,0.480,733.6,01.19,0.508
2014-06-16 02:51:00,1910E-3,5C000000,-0724,0840,12042,031.5,045.6,0.480,733.5,01.19,0.508
2014-06-16 02:52:00,2010E-3,5C000000,-0724,0841,12154,031.4,045.6,0.480,733.6,01.19,0.508
2014-06-16 02:53:00,1979E-3,5C000000,-0724,0842,12162,031.5,045.6,0.480,733.5,01.19,0.508
2014-06-16 02:54:00,2015E-3,5C000000,-0724,0842,11983,031.4,045.6,0.480,733.5,01.19,0.508
2014-06-16 02:55:00,2007E-3,5C000000,-0724,0841,12114,031.4,045.6,0.480,733.5,01.19,0.508
2014-06-16 02:56:00,1929E-3,5C000000,-0724,0840,11967,031.4,045.6,0.480,733.5,01.19,0.508
2014-06-16 02:57:00,1929E-3,5C000000,-0724,0841,12268,031.4,045.6,0.480,733.5,01.19,0.508
2014-06-16 02:58:00,1919E-3,5C000000,-0724,0840,12058,031.4,045.6,0.480,733.5,01.19,0.508
2014-06-16 02:59:00,2023E-3,5C000000,-0724,0841,12216,031.4,045.6,0.480,733.5,01.19,0.508
2014-06-16 03:00:00,1976E-3,5C000000,-0724,0841,12217,031.4,045.6,0.480,733.5,01.19,0.508
2014-06-16 03:01:00,1966E-3,5C000000,-0724,0840,12059,031.4,045.6,0.480,733.5,01.19,0.508
2014-06-16 03:02:00,1927E-3,5C000000,-0724,0840,12198,031.3,045.6,0.480,733.5,01.19,0.508
2014-06-16 03:03:00,1784E-3,5C000000,-0724,0840,12088,031.3,045.6,0.480,733.5,01.19,0.508
2014-06-16 03:04:00,1944E-3,5C000000,-0724,0840,12149,031.3,045.6,0.480,733.5,01.19,0.508
2014-06-16 03:05:00,1865E-3,5C000000,-0724,0840,12020,031.3,045.6,0.480,733.4,01.19,0.508
2014-06-16 03:06:00,1835E-3,5C000000,-0724,0841,12161,031.3,045.6,0.480,733.4,01.19,0.508
2014-06-16 03:07:00,1904E-3,5C000000,-0724,0841,12074,031.3,045.6,0.480,733.4,01.19,0.508
2014-06-16 03:08:00,1742E-3,5C000000,-0724,0840,11993,031.3,045.6,0.480,733.4,01.19,0.508
2014-06-16 03:09:00,2081E-3,5C000000,-0724,0841,12050,031.3,045.6,0.480,733.4,01.19,0.508
2014-06-16 03:10:00,1871E-3,5C000000,-0724,0840,12146,031.3,045.6,0.480,733.4,01.19,0.508
2014-06-16 03:11:00,1873E-3,5C000000,-0724,0841,12239,031.3,045.6,0.480,733.3,01.19,0.508
2014-06-16 03:12:00,2010E-3,5C000000,-0724,0840,12121,031.3,045.6,0.480,733.3,01.19,0.508
2014-06-16 03:13:00,1833E-3,5C000000,-0724,0841,12212,031.3,045.6,0.480,733.3,01.19,0.508
2014-06-16 03:14:00,1753E-3,5C000000,-0724,0840,12060,031.3,045.6,0.480,733.2,01.19,0.508
2014-06-16 03:15:00,1920E-3,5C000000,-0724,0840,12070,031.3,045.6,0.480,733.2,01.19,0.508
2014-06-16 03:16:00,1844E-3,5C000000,-0724,0840,12010,031.3,045.6,0.480,733.2,01.19,0.508
2014-06-16 03:17:00,2079E-3,5C000000,-0724,0840,11935,031.3,045.6,0.480,733.2,01.19,0.508
2014-06-16 03:18:00,1865E-3,5C000000,-0724,0840,11988,031.3,045.6,0.480,733.2,01.19,0.508
2014-06-16 03:19:00,1959E-3,5C000000,-0724,0840,12320,031.3,045.6,0.480,733.1,01.19,0.508
2014-06-16 03:20:00,1884E-3,5C000000,-0724,0841,11988,031.3,045.6,0.480,733.2,01.19,0.508
2014-06-16 03:21:00,1901E-3,5C000000,-0724,0839,12165,031.3,045.6,0.480,733.2,01.19,0.508
2014-06-16 03:22:00,1841E-3,5C000000,-0724,0841,11811,031.3,045.6,0.480,733.1,01.19,0.508
2014-06-16 03:23:00,1889E-3,5C000000,-0724,0841,12127,031.3,045.6,0.480,733.1,01.19,0.508
2014-06-16 03:24:00,1965E-3,5C000000,-0724,0840,12226,031.4,045.6,0.480,733.1,01.19,0.508
2014-06-16 03:25:00,2037E-3,5C000000,-0724,0841,11998,031.3,045.6,0.480,733.1,01.19,0.508
2014-06-16 03:26:00,1937E-3,5C000000,-0724,0841,12037,031.4,045.6,0.480,733.0,01.19,0.508
2014-06-16 03:27:00,1904E-3,5C000000,-0724,0841,11822,031.4,045.6,0.480,733.0,01.19,0.508
2014-06-16 03:28:00,2055E-3,5C000000,-0724,0841,12115,031.4,045.6,0.480,733.1,01.19,0.508
2014-06-16 03:29:00,1894E-3,5C000000,-0724,0839,12077,031.4,045.6,0.480,733.1,01.19,0.508
2014-06-16 03:30:00,1872E-3,5C000000,-0724,0840,11995,031.4,045.6,0.480,733.0,01.19,0.508
2014-06-16 03:31:00,1935E-3,5C000000,-0724,0840,12003,031.4,045.6,0.480,733.0,01.19,0.508
2014-06-16 03:32:00,1937E-3,5C000000,-0724,0840,12104,031.4,045.6,0.480,733.1,01.19,0.508
2014-06-16 03:33:00,1929E-3,5C000000,-0724,0840,12209,031.4,045.6,0.480,733.0,01.19,0.508
2014-06-16 03:34:00,2046E-3,5C000000,-0724,0840,12163,031.4,045.6,0.480,733.0,01.19,0.508
2014-06-16 03:35:00,1953E-3,5C000000,-0724,0841,12009,031.4,045.6,0.480,733.0,01.19,0.508
2014-06-16 03:36:00,1941E-3,5C000000,-0724,0840,11982,031.5,045.6,0.480,733.0,01.19,0.508
2014-06-16 03:37:00,1985E-3,5C000000,-0724,0841,12123,031.5,045.6,0.480,733.0,01.19,0.508
2014-06-16 03:38:00,1835E-3,5C000000,-0724,0840,12212,031.5,045.6,0.479,733.0,01.19,0.508
2014-06-16 03:39:00,1855E-3,5C000000,-0724,0840,12127,031.5,045.6,0.480,733.0,01.19,0.508
2014-06-16 03:40:00,1926E-3,5C000000,-0724,0840,12207,031.5,045.6,0.480,732.9,01.19,0.508
2014-06-16 03:41:00,1992E-3,5C000000,-0724,0840,12040,031.5,045.6,0.480,732.9,01.19,0.508
2014-06-16 03:42:00,1929E-3,5C000000,-0724,0840,11971,031.5,045.6,0.480,732.9,01.19,0.508
2014-06-16 03:43:00,2076E-3,5C000000,-0724,0840,12128,031.5,045.6,0.479,732.9,01.19,0.508
2014-06-16 03:44:00,2008E-3,5C000000,-0724,0839,12153,031.5,045.6,0.480,732.9,01.19,0.508
2014-06-16 03:45:00,2141E-3,5C000000,-0724,0841,12132,031.5,045.6,0.480,732.9,01.19,0.508
2014-06-16 03:46:00,2103E-3,5C000000,-0724,0841,12015,031.5,045.6,0.480,732.9,01.19,0.508
2014-06-16 03:47:00,2074E-3,5C000000,-0724,0841,12102,031.5,045.6,0.480,732.9,01.19,0.508
2014-06-16 03:48:00,1777E-3,5C000000,-0724,0841,12039,031.6,045.6,0.479,732.8,01.19,0.508
2014-06-16 03:49:00,1947E-3,5C000000,-0724,0840,12121,031.6,045.6,0.479,732.8,01.19,0.508
2014-06-16 03:50:00,1853E-3,5C000000,-0724,0841,12008,031.6,045.6,0.480,732.9,01.19,0.508
2014-06-16 03:51:00,1923E-3,5C000000,-0724,0841,12112,031.6,045.6,0.480,732.8,01.19,0.508
2014-06-16 03:52:00,1806E-3,5C000000,-0724,0840,12141,031.6,045.6,0.480,732.8,01.19,0.508
2014-06-16 03:53:00,2033E-3,5C000000,-0724,0840,12017,031.6,045.6,0.480,732.8,01.19,0.508
2014-06-16 03:54:00,2084E-3,5C000000,-0724,0841,12090,031.6,045.6,0.479,732.8,01.19,0.508
2014-06-16 03:55:00,1788E-3,5C000000,-0724,0840,12123,031.6,045.6,0.479,732.8,01.19,0.508
2014-06-16 03:56:00,1870E-3,5C000000,-0724,0840,12030,031.6,045.6,0.480,732.8,01.19,0.508
2014-06-16 03:57:00,1974E-3,5C000000,-0724,0841,12132,031.7,045.6,0.480,732.8,01.19,0.508
2014-06-16 03:58:00,2012E-3,5C000000,-0724,0840,12244,031.7,045.6,0.479,732.8,01.19,0.508
2014-06-16 03:59:00,1932E-3,5C000000,-0724,0841,12130,031.7,045.6,0.479,732.8,01.19,0.508
2014-06-16 04:00:00,1925E-3,5C000000,-0724,0840,12136,031.7,045.6,0.480,732.8,01.19,0.508
2014-06-16 04:01:00,1839E-3,5C000000,-0724,0840,12080,031.7,045.6,0.480,732.7,01.19,0.508
2014-06-16 04:02:00,1922E-3,5C000000,-0724,0840,12025,031.7,045.6,0.479,732.7,01.19,0.508
2014-06-16 04:03:00,1951E-3,5C000000,-0724,0841,12160,031.7,045.6,0.479,732.7,01.19,0.508
2014-06-16 04:04:00,1997E-3,5C000000,-0724,0840,12039,031.7,045.6,0.479,732.7,01.19,0.508
2014-06-16 04:05:00,1842E-3,5C000000,-0724,0841,12157,031.7,045.6,0.479,732.7,01.19,0.508
2014-06-16 04:06:00,1887E-3,5C000000,-0724,0842,11758,031.6,045.6,0.479,732.8,01.19,0.508
2014-06-16 04:07:00,1919E-3,5C000000,-0724,0840,12187,031.6,045.6,0.479,732.8,01.19,0.508
2014-06-16 04:08:00,2075E-3,5C000000,-0724,0840,12099,031.7,045.6,0.479,732.7,01.19,0.508
2014-06-16 04:09:00,1894E-3,5C000000,-0724,0840,12037,031.7,045.6,0.479,732.8,01.19,0.508
2014-06-16 04:10:00,1908E-3,5C000000,-0724,0840,12256,031.7,045.6,0.479,732.7,01.19,0.508
2014-06-16 04:11:00,1900E-3,5C000000,-0724,0842,11989,031.7,045.6,0.479,732.6,01.19,0.508
2014-06-16 04:12:00,2002E-3,5C000000,-0724,0840,11941,031.7,045.6,0.479,732.7,01.19,0.508
2014-06-16 04:13:00,1890E-3,5C000000,-0724,0840,12105,031.7,045.6,0.479,732.7,01.19,0.508
2014-06-16 04:14:00,1895E-3,5C000000,-0724,0840,12082,031.7,045.6,0.479,732.7,01.19,0.508
2014-06-16 04:15:00,1896E-3,5C000000,-0724,0840,12116,031.7,045.6,0.479,732.7,01.19,0.508
2014-06-16 04:16:00,1869E-3,5C000000,-0724,0840,12100,031.7,045.6,0.479,732.6,01.19,0.508
2014-06-16 04:17:00,1958E-3,5C000000,-0724,0841,12128,031.7,045.6,0.479,732.6,01.19,0.508
2014-06-16 04:18:00,1962E-3,5C000000,-0724,0840,11797,031.7,045.6,0.479,732.6,01.19,0.508
2014-06-16 04:19:00,1873E-3,5C000000,-0724,0839,12054,031.7,045.6,0.479,732.6,01.19,0.508
2014-06-16 04:20:00,1934E-3,5C000000,-0724,0840,12180,031.7,045.6,0.479,732.6,01.19,0.508